Dewpoint
49 49 47 47 46 46 46 44 43 38 40 34 39 42 44 45 46 45 47 49 50 50 47 45 43 42 41 40 39 38 37 37 37 38 38 38 38 39
49 49 46 46 45 46 45 44 43 40 39 33 32 39 43 44 46 44 45 48 49 47 45 43 42 41 39 39 38 37 36 36 36 36 36 37 37 37
48 47 46 45 45 45 45 44 40 38 38 31 31 37 41 43 42 43 45 43 45 46 44 43 41 40 39 38 37 35 35 34 34 34 35 35 35 36
48 47 46 44 44 44 44 43 40 36 34 30 31 35 39 42 41 41 41 41 41 45 43 42 41 39 39 37 36 34 33 33 32 33 33 33 34 35
47 45 45 44 43 43 43 42 38 34 33 31 30 32 35 39 37 37 36 36 38 43 43 42 41 39 38 37 35 34 32 31 31 31 31 31 32 34
46 44 44 44 44 43 42 41 35 33 32 33 31 33 37 35 37 37 33 33 34 37 39 40 40 39 38 36 35 34 32 30 30 30 30 30 31 32
45 43 43 44 44 44 42 38 34 33 32 31 31 31 32 36 37 35 33 30 30 32 32 34 35 34 34 36 35 34 32 30 30 29 29 30 30 31
43 42 41 43 44 45 43 40 37 33 31 31 30 30 32 36 37 34 27 28 29 29 30 30 32 31 30 31 36 34 33 31 29 29 29 29 29 30
44 41 38 38 42 42 43 41 39 39 36 31 30 30 30 33 35 32 29 26 25 25 28 28 29 30 31 28 35 35 34 31 29 29 29 27 27 28
45 40 37 36 39 39 39 37 36 36 36 31 31 30 29 32 34 32 30 24 24 26 26 24 24 27 25 26 33 34 35 33 30 28 27 25 26 27
45 42 37 36 40 41 37 36 35 35 38 37 36 37 37 36 35 29 26 26 22 23 24 23 23 22 22 22 27 35 34 33 32 30 25 24 25 26
45 42 40 37 41 41 36 36 34 34 34 34 36 37 37 36 37 30 28 28 23 21 24 24 23 23 22 24 25 29 29 33 31 27 22 23 24 23
45 41 38 41 42 41 38 35 34 35 36 33 33 34 33 33 32 28 28 29 24 25 25 26 25 26 27 24 25 25 28 26 22 20 21 22 23 23
44 41 39 41 41 41 39 39 40 38 34 33 33 32 32 32 29 27 28 28 27 26 26 26 25 28 27 25 23 25 24 23 20 20 20 21 22 23
44 41 40 41 41 41 39 40 39 35 33 32 32 32 32 30 28 27 28 28 28 28 27 27 28 29 28 28 26 25 24 22 21 20 20 19 20 21
43 41 41 41 41 39 39 39 35 34 33 32 32 29 29 29 28 27 26 27 26 26 28 29 30 29 29 28 27 25 24 22 22 21 20 20 20 20
44 41 40 40 39 38 37 35 33 34 32 31 30 29 29 28 27 27 27 26 25 25 25 27 27 27 28 27 26 23 22 22 22 21 21 20 19 18
43 40 39 39 38 37 35 33 32 33 31 30 30 29 28 28 27 27 28 27 26 25 24 25 25 25 25 24 26 23 22 22 22 20 20 17 17 17
42 40 39 39 38 37 36 34 32 32 31 31 30 29 30 29 28 28 28 27 26 25 25 25 25 25 23 21 22 23 22 21 19 18 19 18 16 19
42 40 39 39 38 37 36 34 33 32 31 31 30 30 30 30 29 28 28 27 26 25 24 25 26 26 25 23 20 21 18 20 18 18 17 18 19 21
41 41 40 39 38 38 37 35 34 32 32 31 31 30 31 30 29 29 29 29 28 26 24 25 26 29 23 24 21 19 21 21 21 20 19 16 14 15
40 41 40 39 39 38 36 35 33 33 32 32 31 31 31 31 30 30 30 30 29 27 26 24 24 23 22 21 19 18 19 19 19 19 19 19 12 7
40 40 39 39 38 37 36 35 34 33 32 32 32 31 31 31 32 32 32 31 28 24 22 21 22 22 20 19 18 18 17 17 18 17 17 18 18 19
Lifted_Index
3 3 4 6 8 10 10 11 12 12 13 13 14 14 15 15 15 15 15 15 15 15 16 17 18 18 17 17 18 18 19 19 20 19 19 20 20 20
2 3 4 7 8 10 10 11 12 12 12 13 13 14 14 15 15 15 15 15 15 16 17 18 18 18 18 18 18 18 19 20 20 20 20 20 20 20
2 3 4 6 8 10 11 11 12 12 12 12 13 14 14 15 15 15 16 16 16 16 18 19 19 18 18 18 18 18 19 20 20 21 21 21 21 21
2 3 4 6 8 9 11 12 12 12 11 12 13 13 14 15 15 16 16 16 16 17 18 19 19 19 18 18 18 18 19 20 21 22 22 22 22 22
2 2 4 6 7 8 10 11 12 11 11 12 13 13 14 14 15 15 16 16 17 17 18 19 20 20 19 19 19 19 19 20 21 22 23 23 23 22
2 2 3 5 6 7 9 11 11 11 12 12 13 13 14 14 15 15 16 16 17 18 19 19 20 20 20 20 20 19 19 20 22 23 24 24 23 23
2 2 3 5 6 7 9 11 12 12 12 12 13 13 14 14 14 15 15 15 16 17 18 19 19 19 20 20 20 20 19 20 22 23 24 24 23 23
2 2 3 5 6 7 8 10 12 13 13 13 13 13 14 14 14 14 14 14 15 17 17 17 18 19 20 20 20 20 20 21 22 24 24 24 23 23
2 2 4 5 6 6 8 9 11 13 14 14 14 14 14 14 14 14 14 14 15 16 17 16 17 18 19 21 20 20 20 21 22 24 24 23 23 23
2 3 4 5 6 6 7 8 11 13 14 15 15 15 15 15 15 15 14 15 15 16 17 16 16 17 19 20 20 20 20 20 22 23 24 23 23 23
3 3 4 5 5 6 6 7 9 12 14 16 16 16 16 16 16 16 15 14 14 15 16 16 15 16 17 19 20 20 20 20 21 23 23 23 23 23
3 3 4 5 5 6 6 6 8 10 13 15 16 17 17 17 17 16 15 14 14 14 15 15 15 15 16 17 18 19 19 19 21 22 23 23 23 23
3 3 3 4 5 6 6 6 6 8 11 14 15 16 16 16 16 16 16 15 15 15 16 16 15 15 15 15 15 17 17 18 20 22 23 23 23 23
4 3 3 3 4 5 6 6 6 7 9 12 14 15 15 15 15 16 16 16 16 17 17 17 16 15 14 13 13 14 16 18 20 22 22 23 23 23
4 3 2 2 3 4 6 6 7 7 8 10 12 14 14 15 15 15 16 16 17 17 18 18 17 16 14 13 12 13 15 17 20 22 22 23 23 23
4 4 3 3 3 4 6 6 7 6 7 9 11 13 14 14 14 15 15 15 16 16 17 18 18 17 15 14 13 14 15 17 20 22 22 22 23 23
5 4 4 4 4 4 5 6 6 6 6 8 10 12 12 12 13 14 15 15 15 15 16 17 18 17 16 15 15 15 16 18 20 21 22 22 22 22
5 5 5 5 4 4 4 5 5 5 6 7 9 10 11 11 11 13 14 15 15 15 15 16 16 15 14 15 15 16 17 19 20 21 21 21 21 22
5 5 5 5 4 4 4 4 5 5 5 6 8 9 9 10 10 11 13 14 15 15 15 15 15 13 12 13 15 17 18 19 21 21 21 21 21 21
6 6 5 5 5 4 4 4 4 4 4 5 6 7 7 8 9 10 12 14 14 14 14 14 14 14 13 13 15 17 20 21 21 21 21 21 21 21
6 6 6 6 5 5 4 4 4 4 4 4 5 5 6 7 8 10 12 14 14 13 13 14 15 16 16 15 15 16 19 22 22 22 21 21 20 20
6 6 6 6 6 5 4 4 4 4 4 4 4 5 6 7 9 12 14 14 14 13 13 15 16 16 16 15 15 16 18 21 22 22 22 22 21 20
6 6 6 6 6 5 5 5 4 4 4 4 4 5 6 7 10 13 15 15 13 13 14 15 16 16 16 15 15 16 18 21 22 22 22 23 22 22